EW9766 Weather Reports


Display with metric or nautical units.
time (UTC)temp
F
wind
direction
speed
MPH
gust
MPH
rain 1hr
in
rain 24hr
in
rain mn
in
humidity
%
barometer
mb
20260905181532 56 310 2.0 5.0 0.00 0.02 0.00 85 1019.7
20260905180037 57 320 3.0 7.0 0.00 0.02 0.00 86 1019.7
20260905173031 55 301 2.0 5.0 0.00 0.02 0.00 89 1019.7
20260905171535 55 277 0.0 4.0 0.00 0.02 0.00 89 1019.6
20260905170035 53 247 0.0 2.0 0.00 0.02 0.00 90 1019.6
20260905164536 53 206 0.0 0.0 0.00 0.02 0.00 91 1019.6
20260905163035 52 202 0.0 0.0 0.00 0.02 0.00 92 1019.5
20260905161528 52 201 0.0 0.0 0.00 0.02 0.00 92 1019.5
20260905160030 51 180 0.0 0.0 0.00 0.03 0.00 92 1019.4
20260905154651 50 180 0.0 0.0 0.00 0.03 0.00 93 1019.4
20260905153032 49 180 0.0 2.0 0.00 0.03 0.00 93 1019.3
20260905151536 49 178 3.0 6.0 0.00 0.03 0.00 93 1019.2
20260905150036 48 160 3.0 8.0 0.00 0.03 0.00 94 1019.2
20260905144534 48 147 4.0 8.0 0.00 0.03 0.00 94 1019.2
20260905143031 47 152 6.0 10.0 0.00 0.03 0.00 94 1019.1
20260905141532 46 146 6.0 11.0 0.00 0.03 0.00 94 1019.1
20260905140105 45 168 4.0 9.0 0.00 0.03 0.00 94 1018.9
20260905134531 45 152 4.0 7.0 0.00 0.03 0.00 94 1018.8
20260905133033 45 153 4.0 7.0 0.00 0.03 0.00 94 1018.7
20260905131530 45 152 4.0 7.0 0.00 0.03 0.00 94 1018.7
20260905130036 45 146 4.0 6.0 0.00 0.03 0.00 94 1018.6
20260905123033 46 155 2.0 4.0 0.00 0.03 0.00 94 1018.7
20260905121608 46 144 3.0 6.0 0.00 0.03 0.00 94 1018.7
20260905114536 46 162 3.0 6.0 0.00 0.04 0.00 93 1018.5
20260905113034 47 168 3.0 5.0 0.00 0.04 0.00 93 1018.4
20260905111533 47 135 3.0 5.0 0.00 0.04 0.00 93 1018.4
20260905110036 47 158 0.0 4.0 0.00 0.04 0.00 93 1018.5
20260905104530 48 172 1.0 3.0 0.00 0.04 0.00 93 1018.5
20260905103032 48 144 1.0 3.0 0.00 0.04 0.00 93 1018.4
20260905101608 48 172 3.0 5.0 0.00 0.04 0.00 93 1018.4
20260905100036 48 167 3.0 6.0 0.00 0.04 0.00 93 1018.5
20260905094543 48 154 4.0 7.0 0.00 0.04 0.00 93 1018.4
20260905091536 48 176 4.0 7.0 0.00 0.04 0.00 93 1018.4
20260905090032 48 164 4.0 8.0 0.00 0.04 0.00 93 1018.4
20260905081531 48 141 4.0 9.0 0.00 0.04 0.00 93 1018.3
20260905080035 48 142 3.0 4.0 0.00 0.04 0.00 93 1018.3
20260905074531 48 142 4.0 6.0 0.00 0.04 0.00 93 1018.1
20260905071536 48 156 3.0 6.0 0.00 0.04 0.00 92 1017.9
20260905070030 48 160 3.0 7.0 0.01 0.04 0.00 92 1017.8
20260905064535 49 160 2.0 5.0 0.02 0.04 0.04 92 1017.7
20260905063035 50 161 3.0 5.0 0.02 0.04 0.04 92 1017.6
20260905061536 50 161 3.0 6.0 0.02 0.04 0.03 92 1017.7
20260905060032 50 157 1.0 4.0 0.01 0.03 0.02 92 1017.8
20260905054535 50 171 2.0 4.0 0.00 0.02 0.02 91 1017.9
20260905053030 50 171 3.0 6.0 0.00 0.02 0.02 91 1017.9
20260905051532 50 164 2.0 5.0 0.00 0.02 0.02 91 1017.8
20260905044531 50 173 3.0 4.0 0.00 0.02 0.02 90 1017.7
20260905043036 50 136 3.0 4.0 0.00 0.02 0.02 90 1017.5
20260905041535 50 175 2.0 4.0 0.00 0.02 0.02 89 1017.5
20260905040031 51 177 2.0 4.0 0.00 0.02 0.02 89 1017.3
20260905034537 50 162 2.0 3.0 0.00 0.02 0.02 88 1017.2
20260905031533 51 180 3.0 4.0 0.00 0.02 0.02 86 1017.0
20260905030032 52 208 2.0 4.0 0.00 0.02 0.02 85 1017.0
20260905024536 53 312 0.0 1.0 0.00 0.02 0.02 83 1017.0
20260905023032 53 336 1.0 3.0 0.00 0.02 0.02 82 1017.1
20260905021537 55 337 0.0 1.0 0.00 0.02 0.02 79 1016.9
20260905020036 56 337 1.0 2.0 0.00 0.02 0.02 78 1016.7
20260905013029 57 337 1.0 4.0 0.00 0.02 0.02 78 1016.4
20260905011534 57 337 2.0 3.0 0.00 0.02 0.02 78 1016.5
20260905010142 57 322 0.0 3.0 0.00 0.02 0.02 77 1016.3
20260905003107 57 292 0.0 3.0 0.00 0.02 0.02 79 1016.2
20260905001532 57 286 1.0 4.0 0.00 0.02 0.02 81 1016.1
20260905000106 57 254 1.0 4.0 0.00 0.02 0.02 80 1016.1
20260904233030 57 171 2.0 5.0 0.00 0.02 0.02 79 1016.0
20260904231643 58 148 2.0 5.0 0.00 0.02 0.02 78 1015.9
20260904224532 57 112 2.0 7.0 0.00 0.02 0.02 78 1015.8
20260904223031 56 73 3.0 6.0 0.00 0.02 0.02 80 1015.8
20260904221608 56 112 2.0 8.0 0.00 0.02 0.02 82 1015.8
20260904220035 56 138 2.0 6.0 0.00 0.02 0.02 84 1015.8
20260904214535 56 160 1.0 4.0 0.00 0.02 0.02 84 1015.8
20260904213035 56 76 1.0 4.0 0.00 0.02 0.02 84 1015.8
20260904211641 57 348 2.0 5.0 0.00 0.02 0.02 84 1015.6
20260904210034 57 270 0.0 4.0 0.00 0.02 0.02 85 1015.5
20260904204536 56 282 1.0 5.0 0.00 0.02 0.02 85 1015.4
20260904203034 55 332 1.0 4.0 0.00 0.02 0.02 86 1015.4
20260904201529 55 360 0.0 2.0 0.00 0.02 0.02 86 1015.6
20260904200036 55 314 2.0 5.0 0.00 0.02 0.02 85 1015.6
20260904194536 56 325 3.0 6.0 0.00 0.02 0.02 85 1015.6
20260904193034 56 309 2.0 6.0 0.00 0.02 0.02 86 1015.7
20260904191531 55 309 2.0 7.0 0.00 0.02 0.02 87 1015.7
20260904190030 55 309 2.0 6.0 0.00 0.02 0.02 86 1015.7
20260904184606 55 301 1.0 3.0 0.00 0.02 0.02 87 1015.7